Weather reports worldwide

Advertisment
Maastricht, Netherlands (6380): temperature & dewpoint: 08.12.2019 04:00:00 - 14.12.2019 04:00:00 (CET)Maastricht, Netherlands (6380): temperature 5cm: 08.12.2019 04:00:00 - 14.12.2019 04:00:00 (CET)Maastricht, Netherlands (6380): wind speed & gusts: 08.12.2019 04:00:00 - 14.12.2019 04:00:00 (CET)Maastricht, Netherlands (6380): wind direction: 08.12.2019 04:00:00 - 14.12.2019 04:00:00 (CET)Maastricht, Netherlands (6380): reduced air pressure: 08.12.2019 04:00:00 - 14.12.2019 04:00:00 (CET)Maastricht, Netherlands (6380): visibility: 08.12.2019 04:00:00 - 14.12.2019 04:00:00 (CET)Maastricht, Netherlands (6380): precipitation: 08.12.2019 04:00:00 - 14.12.2019 04:00:00 (CET)
Date & Time tt [°C] td [°C] tt 5cm [°C] ff [km/h] ff [kn] fx [km/h] fx [kn] dd ppp [hPa] vv [km] rr [mm]
14.12.2019 04:00:00 - - - - - - - - - - -
14.12.2019 03:00:00 4,6 3,3 4,3 22 12 43 23 S 983,2 10 0,5
14.12.2019 02:00:00 5,1 2,6 4,9 29 16 40 21 SSW 984,4 10 0,0
14.12.2019 01:00:00 5,2 2,5 4,9 31 17 47 25 SSW 985,1 10 0,0
14.12.2019 00:00:00 5,4 2,8 5,0 29 16 43 23 SSW 985,9 10 0,0
13.12.2019 23:00:00 5,6 3,2 5,0 31 17 40 21 SW 986,2 10 0,0
13.12.2019 22:00:00 5,5 3,2 4,9 28 15 36 19 SW 986,8 10 0,0
13.12.2019 21:00:00 5,7 3,4 5,1 21 11 36 19 WSW 986,8 10 0,0
13.12.2019 20:00:00 5,6 4,3 5,3 21 11 36 19 WSW 986,8 10 0,3
13.12.2019 19:00:00 5,8 4,8 5,5 21 11 36 19 WSW 985,9 10 0,2
13.12.2019 18:00:00 6,2 5,3 6,0 18 10 36 19 W 984,6 10 0,3
13.12.2019 17:00:00 5,9 5,3 5,6 15 8 32 18 W 983,2 10 0,6
13.12.2019 16:00:00 5,3 4,5 5,1 13 7 36 19 WNW 981,4 10 0,9
13.12.2019 15:00:00 4,9 3,6 4,8 21 11 47 25 WNW 979,4 10 0,6
13.12.2019 14:00:00 5,4 5,2 5,3 13 7 29 16 WSW 976,8 3,0 0,2
13.12.2019 13:00:00 5,1 4,7 5,2 26 14 36 19 SW 975,5 4,3 0,3
13.12.2019 12:00:00 5,4 4,5 5,3 22 12 32 18 WSW 975,0 6 1,0
13.12.2019 11:00:00 5,9 4,6 5,9 22 12 32 18 WSW 974,4 10 0,1
13.12.2019 10:00:00 5,7 5,3 5,3 21 11 29 16 SSW 973,3 10 0,5
13.12.2019 09:00:00 5,0 4,3 4,8 21 11 32 18 S 972,5 10 0,4
13.12.2019 08:00:00 4,7 3,4 4,5 22 12 32 18 S 972,5 10 0,1
13.12.2019 07:00:00 4,4 2,7 4,1 26 14 36 19 SSE 972,5 10 0,5
13.12.2019 06:00:00 4,3 2,6 3,9 22 12 32 18 S 973,5 10 0,3
13.12.2019 05:00:00 4,4 2,1 4,0 24 13 32 18 S 974,9 10 0,0
13.12.2019 04:00:00 4,0 1,6 3,5 24 13 32 18 S 976,7 10 0,0
13.12.2019 03:00:00 3,4 1,4 3,0 29 16 40 21 S 978,2 10 0,4
13.12.2019 02:00:00 3,6 1,6 3,4 29 16 50 27 S 979,8 10 0,4
13.12.2019 01:00:00 4,8 0,7 4,4 29 16 50 27 S 981,4 10 0,0
13.12.2019 00:00:00 5,0 1,0 4,6 34 18 54 29 S 983,4 10 0,0
12.12.2019 23:00:00 5,0 1,0 4,4 28 15 43 23 S 985,1 10 0,0
12.12.2019 22:00:00 4,4 0,8 3,7 29 16 47 25 S 987,0 10 0,0
12.12.2019 21:00:00 4,5 0,5 3,9 28 15 43 23 S 988,5 10 0,0
12.12.2019 20:00:00 4,2 0,1 3,7 28 15 47 25 S 990,2 10 0,0
12.12.2019 19:00:00 4,1 -0,1 3,5 28 15 47 25 S 991,9 10 0,0
12.12.2019 18:00:00 3,8 -0,1 3,1 21 11 36 19 S 993,6 10 0,0
12.12.2019 17:00:00 4,0 0,1 3,4 24 13 43 23 S 995,0 10 0,0
12.12.2019 16:00:00 4,1 0,1 3,4 28 15 47 25 S 996,6 10 0,0
12.12.2019 15:00:00 5,1 0,4 4,2 28 15 43 23 S 997,8 10 0,0
12.12.2019 14:00:00 5,6 1,0 5,4 31 17 43 23 SSW 999,1 10 0,0
12.12.2019 13:00:00 5,3 1,6 5,8 28 15 40 21 SSW 1000,3 10 0,0
12.12.2019 12:00:00 5,0 1,8 5,6 29 16 36 19 SSW 1001,6 10 0,0
12.12.2019 11:00:00 4,6 2,0 4,9 21 11 29 16 SSW 1002,7 10 0,0
12.12.2019 10:00:00 3,8 2,0 3,3 22 12 32 18 SW 1003,3 10 0,0
12.12.2019 09:00:00 3,7 2,0 3,4 18 10 25 14 SW 1003,3 10 0,0
12.12.2019 08:00:00 4,0 2,6 3,7 21 11 22 12 SW 1003,4 10 0,0
12.12.2019 07:00:00 4,3 2,9 4,1 15 8 29 16 WSW 1003,3 10 0,0
12.12.2019 06:00:00 4,5 3,6 4,2 16 9 25 14 SW 1003,1 10 0,1
12.12.2019 05:00:00 4,9 3,7 4,7 18 10 22 12 SW 1003,2 10 0,0
12.12.2019 04:00:00 4,7 3,8 4,4 15 8 22 12 SSW 1003,1 10 0,0
12.12.2019 03:00:00 4,8 3,7 4,4 18 10 22 12 SSW 1003,3 10 0,0
12.12.2019 02:00:00 4,9 3,5 4,5 18 10 22 12 SSW 1003,5 10 0,0
12.12.2019 01:00:00 4,6 3,1 4,2 18 10 22 12 SSW 1003,7 10 0,0
12.12.2019 00:00:00 3,8 2,7 3,1 21 11 25 14 SSW 1004,1 10 0,0
11.12.2019 23:00:00 3,9 2,9 3,3 21 11 29 16 SSW 1004,5 10 0,0
11.12.2019 22:00:00 4,2 3,3 3,7 21 11 25 14 SSW 1005,0 10 0,0
11.12.2019 21:00:00 4,3 3,6 3,6 18 10 22 12 SSW 1005,4 10 0,0
11.12.2019 20:00:00 4,4 3,7 3,8 18 10 22 12 SSW 1005,5 10 0,0
11.12.2019 19:00:00 4,6 3,9 4,1 16 9 18 10 SSW 1005,7 10 0,0
11.12.2019 18:00:00 4,6 4,1 4,1 15 8 25 14 SSW 1005,8 10 0,0
11.12.2019 17:00:00 4,9 4,3 4,7 15 8 22 12 SSW 1006,0 10 0,0
11.12.2019 16:00:00 4,9 4,3 4,9 16 9 22 12 SSW 1005,9 10 0,0
11.12.2019 15:00:00 5,1 4,3 5,2 16 9 22 12 SSW 1006,3 10 0,0
11.12.2019 14:00:00 5,0 4,3 5,1 18 10 25 14 SSW 1006,8 10 0,0
11.12.2019 13:00:00 4,9 4,4 5,1 21 11 29 16 SSW 1007,3 10 0,2
11.12.2019 12:00:00 4,7 4,3 4,8 21 11 29 16 SSW 1008,4 10 0,5
11.12.2019 11:00:00 4,7 4,2 4,7 22 12 25 14 SSW 1009,3 10 0,7
11.12.2019 10:00:00 4,6 4,3 4,6 21 11 22 12 SSW 1009,6 10 1,1
11.12.2019 09:00:00 4,6 4,2 4,5 18 10 25 14 SSW 1010,0 10 1,3
11.12.2019 08:00:00 4,7 4,2 4,6 22 12 25 14 SSW 1010,2 10 0,9
11.12.2019 07:00:00 5,0 4,3 4,9 24 13 36 19 SSW 1010,6 10 1,4
11.12.2019 06:00:00 5,4 3,8 5,2 28 15 40 21 SSW 1010,9 10 0,0
11.12.2019 05:00:00 5,3 3,7 5,1 26 14 43 23 SW 1011,0 10 0,0
11.12.2019 04:00:00 5,1 4,0 4,9 31 17 43 23 SSW 1011,5 5 0,1
11.12.2019 03:00:00 5,1 3,5 4,9 34 18 50 27 SSW 1012,1 5 0,1
11.12.2019 02:00:00 5,9 0,8 5,6 37 20 50 27 SSW 1012,3 10 0,0
11.12.2019 01:00:00 6,4 -0,5 6,0 42 23 61 33 SSW 1013,1 10 0,0
11.12.2019 00:00:00 6,0 -1,0 5,7 44 24 58 31 SSW 1013,2 10 0,0
10.12.2019 23:00:00 6,0 -1,1 5,4 46 25 61 33 SSW 1014,2 10 0,0
10.12.2019 22:00:00 5,8 -0,9 5,2 41 22 58 31 SSW 1014,6 10 0,0
10.12.2019 21:00:00 5,2 0,0 4,7 35 19 50 27 SSW 1015,9 10 0,0
10.12.2019 20:00:00 4,9 0,0 4,3 34 18 47 25 SSW 1017,0 10 0,0
10.12.2019 19:00:00 4,8 0,2 4,3 35 19 47 25 SSW 1018,5 10 0,0
10.12.2019 18:00:00 4,5 0,1 3,7 34 18 43 23 S 1018,8 10 0,0
10.12.2019 17:00:00 4,2 0,1 3,7 31 17 43 23 S 1020,2 10 0,0
10.12.2019 16:00:00 4,5 -0,1 4,1 34 18 47 25 SSW 1021,4 10 0,0
10.12.2019 15:00:00 5,0 0,4 4,6 35 19 54 29 SSW 1022,3 10 0,0
10.12.2019 14:00:00 5,6 1,4 5,4 29 16 50 27 SSW 1023,6 10 0,0
10.12.2019 13:00:00 5,5 2,1 5,8 28 15 36 19 SSW 1024,7 10 0,0
10.12.2019 12:00:00 4,8 2,6 5,1 24 13 32 18 SSW 1025,6 10 0,0
10.12.2019 11:00:00 3,1 1,8 3,0 21 11 29 16 S 1026,4 10 0,0
10.12.2019 10:00:00 2,0 1,3 1,5 16 9 22 12 S 1026,9 10 0,0
10.12.2019 09:00:00 1,5 0,9 0,9 16 9 18 10 SSW 1026,9 10 0,0
10.12.2019 08:00:00 1,4 0,8 0,7 18 10 22 12 SSW 1026,5 10 0,0
10.12.2019 07:00:00 0,9 0,5 0,1 13 7 14 8 SW 1025,8 10 0,0
10.12.2019 06:00:00 1,0 0,6 0,1 13 7 14 8 SW 1025,5 10 0,0
10.12.2019 05:00:00 1,9 1,3 0,4 9 5 14 8 WSW 1025,1 10 0,0
10.12.2019 04:00:00 2,3 1,4 1,3 8 4 18 10 WSW 1025,1 10 0,0
10.12.2019 03:00:00 2,5 1,6 1,0 9 5 18 10 WSW 1024,5 10 0,0
10.12.2019 02:00:00 2,5 1,2 1,2 8 4 14 8 WSW 1023,3 10 0,0
10.12.2019 01:00:00 1,9 1,3 0,5 9 5 11 6 SW 1022,9 10 0,0
10.12.2019 00:00:00 3,9 2,6 3,6 13 7 25 14 NW 1022,1 7 0,5
09.12.2019 23:00:00 3,7 2,2 2,2 9 5 14 8 SW 1020,9 10 0,0
09.12.2019 22:00:00 3,8 1,6 1,9 9 5 14 8 W 1019,3 10 0,0
09.12.2019 21:00:00 4,1 1,8 2,8 11 6 25 14 WNW 1017,9 10 0,0
09.12.2019 20:00:00 4,8 2,4 3,6 13 7 29 16 NW 1015,9 10 0,0
09.12.2019 19:00:00 5,7 3,8 5,1 16 9 32 18 NW 1013,6 10 0,0
09.12.2019 18:00:00 5,8 4,4 5,5 22 12 58 31 NNW 1010,9 10 0,4
09.12.2019 17:00:00 6,1 4,7 6,1 21 11 58 31 NNW 1007,7 10 1,5
09.12.2019 16:00:00 6,3 5,7 6,3 8 4 25 14 W 1003,8 9 0,1
09.12.2019 15:00:00 6,6 5,3 6,5 15 8 32 18 WSW 1002,0 10 0,2
09.12.2019 14:00:00 6,8 5,6 6,7 15 8 32 18 WSW 1001,8 10 0,4
09.12.2019 13:00:00 7,2 5,6 7,2 16 9 29 16 WSW 1001,0 10 0,2
09.12.2019 12:00:00 6,1 5,0 6,1 16 9 29 16 WSW 1000,5 7 0,6
09.12.2019 11:00:00 6,4 4,7 6,2 26 14 43 23 WSW 999,4 10 0,2
09.12.2019 10:00:00 6,8 3,8 6,4 35 19 54 29 SW 997,8 10 0,0
09.12.2019 09:00:00 6,4 4,5 6,0 44 24 58 31 SW 996,5 10 0,2
09.12.2019 08:00:00 6,9 4,0 6,4 42 23 68 37 SW 995,3 10 0,1
09.12.2019 07:00:00 6,5 4,3 6,2 42 23 58 31 SSW 994,7 10 0,1
09.12.2019 06:00:00 6,6 3,9 6,2 39 21 50 27 SSW 994,9 10 0,1
09.12.2019 05:00:00 7,2 3,0 6,9 44 24 58 31 SSW 996,2 10 0,0
09.12.2019 04:00:00 7,3 2,9 6,9 34 18 47 25 SSW 997,3 10 0,0
09.12.2019 03:00:00 7,4 3,4 6,9 31 17 50 27 SW 998,4 10 0,0
09.12.2019 02:00:00 7,3 3,5 6,7 37 20 54 29 SW 998,7 10 0,0
09.12.2019 01:00:00 7,1 3,4 6,3 34 18 47 25 SW 999,6 10 0,0
09.12.2019 00:00:00 6,7 3,5 6,0 34 18 43 23 SW 1000,2 10 0,0
08.12.2019 23:00:00 7,1 3,1 6,3 39 21 54 29 SW 1000,6 10 0,0
08.12.2019 22:00:00 7,5 3,6 6,4 21 11 43 23 WSW 1000,5 10 0,0
08.12.2019 21:00:00 8,2 4,9 7,6 22 12 50 27 WSW 1000,7 10 0,1
08.12.2019 20:00:00 8,4 5,1 7,9 29 16 43 23 SW 1000,7 10 0,0
08.12.2019 19:00:00 8,4 5,1 7,6 26 14 40 21 SW 1001,3 10 0,0
08.12.2019 18:00:00 8,6 5,2 7,8 29 16 40 21 SW 1001,4 10 0,0
08.12.2019 17:00:00 8,7 5,8 7,9 29 16 43 23 SW 1001,9 10 0,0
08.12.2019 16:00:00 9,5 6,0 8,7 24 13 40 21 SW 1002,3 10 0,0
08.12.2019 15:00:00 10,1 7,1 9,6 26 14 43 23 WSW 1002,3 10 0,0
08.12.2019 14:00:00 10,2 8,2 10,1 24 13 47 25 WSW 1002,6 10 0,1
08.12.2019 13:00:00 9,8 9,4 9,8 41 22 58 31 SW 1002,6 2,7 0,5
08.12.2019 12:00:00 9,7 9,0 9,6 42 23 58 31 SW 1002,9 4,1 0,2
08.12.2019 11:00:00 9,5 8,6 9,4 42 23 61 33 SW 1003,3 4,0 0,2
08.12.2019 10:00:00 9,6 8,1 9,3 37 20 54 29 SW 1003,4 10 0,1
08.12.2019 09:00:00 8,9 7,7 8,7 41 22 54 29 SSW 1003,2 10 1,0
08.12.2019 08:00:00 9,8 7,1 9,3 39 21 50 27 SW 1005,5 10 0,0
08.12.2019 07:00:00 10,0 6,4 9,5 35 19 50 27 SSW 1005,5 10 0,0
08.12.2019 06:00:00 9,8 6,2 9,2 37 20 50 27 SSW 1006,6 10 0,0
08.12.2019 05:00:00 9,5 5,6 9,0 35 19 47 25 SW 1007,7 10 0,0
08.12.2019 04:00:00 8,8 5,0 8,5 34 18 47 25 SSW 1008,8 10 0,0

tt = temperature
td = dewpoint
tt 5cm = temperature 5cm
ff = wind speed
fx = gusts
dd = wind direction
ppp = reduced air pressure
vv = visibility
rr = precipitation

Next stations